Theta_e
297 297 298 298 298 299 299 300 300 300 301 301 301 301 301 301 302 300 297 301 295 287 291 294 294 291 291 290 284 288 287 288 287 282 281 280 278 282 281 284 283 282 279 281 283 280 276 292 295 288 292 297 296 297
297 297 298 298 298 299 300 300 300 300 301 301 301 301 301 301 301 301 293 300 300 291 291 296 297 299 297 295 292 291 287 289 288 283 283 281 277 276 281 277 286 281 284 281 283 283 290 296 297 300 299 296 298 298
297 298 298 298 299 300 299 300 300 301 301 301 301 301 302 302 302 301 296 297 296 290 290 291 290 296 301 301 300 290 290 294 292 291 285 283 279 280 276 278 283 286 289 285 286 289 291 293 295 297 300 300 302 301
299 299 299 299 299 299 300 301 301 301 302 302 302 302 302 302 302 302 297 299 295 291 285 285 294 293 299 300 299 298 295 298 297 295 288 282 280 286 279 284 282 286 288 287 287 290 292 294 296 298 299 301 302 302
298 298 298 300 301 301 301 301 301 301 302 302 302 303 302 303 303 302 300 299 298 290 283 283 292 295 296 299 298 299 297 295 293 290 287 283 284 286 284 285 282 288 287 284 282 290 291 292 296 294 296 296 298 301
300 300 300 301 301 301 301 301 301 301 301 302 302 303 303 302 303 299 288 298 299 296 289 280 289 291 293 295 295 297 298 296 294 291 288 289 291 290 280 278 289 291 291 292 290 291 291 292 295 292 291 291 292 291
300 301 301 301 301 301 301 300 300 301 301 302 302 302 303 302 300 292 290 295 300 299 289 282 280 290 294 294 294 295 296 295 295 291 289 289 289 291 280 279 286 287 287 289 292 291 291 292 289 289 288 288 289 286
300 300 300 300 301 301 301 301 301 301 301 302 302 302 302 302 301 296 298 301 300 294 291 278 284 288 294 286 289 293 292 294 294 288 291 289 291 287 282 280 282 283 285 288 288 289 291 290 287 285 285 285 282 280
300 300 299 300 300 300 300 301 300 301 302 302 302 302 298 296 293 295 301 300 299 293 284 284 281 281 292 290 291 291 291 285 292 286 287 289 280 273 276 278 279 280 281 283 285 288 288 287 283 282 281 281 279 278
300 300 299 299 300 300 300 300 300 300 300 300 296 291 285 295 301 300 294 289 289 289 288 280 286 284 289 286 285 286 285 285 283 285 286 279 275 279 279 279 280 280 282 283 282 282 282 282 281 279 279 280 279 278
300 300 300 300 300 300 300 300 300 301 300 294 289 289 296 300 294 289 284 283 285 283 286 285 285 285 288 283 284 282 282 281 281 284 279 275 272 276 278 277 278 279 280 280 281 280 280 279 278 278 277 277 277 276
300 300 300 299 299 299 299 299 299 296 294 295 294 295 292 286 283 282 280 282 282 281 284 284 286 287 287 292 285 286 281 282 278 281 275 268 273 276 276 276 277 278 278 277 278 277 278 278 277 276 276 275 275 274
298 298 298 297 297 297 297 298 296 300 297 290 286 281 281 275 269 268 276 278 278 282 282 285 283 285 286 289 286 283 281 278 280 272 269 271 274 276 276 276 276 277 277 276 276 276 276 275 275 275 273 274 274 273
297 298 297 296 296 296 295 293 294 291 286 280 276 267 266 264 270 273 272 273 279 280 281 283 284 284 284 282 282 277 275 275 267 262 265 271 274 275 275 276 274 273 274 274 273 274 273 273 272 273 273 273 273 271
298 296 294 295 296 294 293 293 291 285 281 276 273 265 268 273 274 275 276 277 279 281 282 283 281 280 277 276 274 274 268 262 266 263 268 272 274 274 274 274 274 273 273 273 273 273 272 272 272 271 272 272 272 271
298 296 294 294 294 293 291 288 285 284 279 274 272 269 270 270 271 272 273 273 279 278 282 282 278 272 271 274 267 265 265 261 263 266 271 272 272 272 272 273 273 273 273 273 273 273 273 272 271 271 271 271 270 270
297 293 297 297 296 293 291 283 281 276 273 271 268 271 268 267 269 271 274 275 279 279 276 276 271 269 273 267 266 268 261 263 268 271 272 272 272 272 272 272 272 272 272 272 272 273 273 273 273 271 269 270 270 270
293 295 297 297 293 290 285 282 277 275 269 270 268 270 271 273 272 273 275 277 278 278 277 272 275 268 265 265 265 268 269 271 271 271 271 271 271 271 272 271 271 271 271 270 271 270 271 270 270 269 269 269 268 268
294 295 297 296 291 284 280 278 278 270 270 270 272 274 274 273 275 276 277 277 277 278 276 273 267 267 265 268 269 270 271 271 270 270 270 271 271 270 270 270 270 269 269 269 269 268 267 268 267 267 267 266 264 264
296 295 295 295 292 283 279 277 280 274 270 272 275 273 273 272 274 274 275 276 275 273 269 267 267 270 270 272 273 272 272 273 271 268 268 269 269 269 268 269 268 268 267 267 266 266 266 265 264 264 263 263 261 258
292 291 293 289 285 284 279 277 275 275 274 274 275 275 272 274 271 270 270 274 271 269 267 269 269 271 272 272 273 273 272 271 269 269 267 266 268 268 267 266 266 265 263 262 262 262 262 262 262 261 258 253 252 255
287 292 281 284 281 281 278 279 277 278 277 276 276 275 270 265 264 268 271 267 267 268 271 270 271 271 270 270 271 271 271 270 269 268 268 268 265 264 262 262 263 260 260 258 258 254 258 261 259 257 254 250 256 255
288 286 280 279 275 275 278 282 276 278 270 272 275 270 266 262 267 273 266 269 269 272 271 271 271 271 270 270 270 269 270 268 265 264 263 263 263 259 262 262 259 257 259 261 261 258 255 257 256 252 251 251 248 248
284 277 270 269 272 267 271 268 276 273 272 270 268 265 265 264 269 265 264 267 269 271 270 270 270 269 268 267 265 266 266 266 264 262 263 263 262 262 262 262 261 260 259 261 258 253 253 247 251 252 246 245 244 245
274 270 269 266 270 268 264 263 264 268 263 265 265 264 263 267 261 259 260 264 265 263 264 267 266 265 260 260 263 264 266 266 264 262 259 263 261 261 260 260 260 261 259 252 249 248 247 245 244 246 247 244 249 248
267 269 267 266 265 268 266 262 262 263 262 262 262 263 261 258 256 256 262 258 263 259 256 256 261 263 263 265 263 263 264 266 264 260 263 264 261 254 252 252 253 256 256 251 249 247 248 247 246 248 247 248 247 245
261 263 270 271 270 269 263 263 266 264 261 261 261 257 257 253 254 261 265 263 263 259 262 260 263 264 263 263 263 263 263 263 262 261 261 261 260 259 254 251 252 256 253 250 247 247 248 247 246 246 245 243 245 245
263 264 260 258 261 263 257 258 258 258 260 266 262 254 253 254 258 263 263 263 264 264 263 262 263 263 261 260 259 260 258 257 259 259 259 259 257 254 251 250 253 258 251 247 246 245 246 246 246 246 244 245 246 245
259 258 261 255 257 258 260 256 257 263 265 258 254 255 259 263 260 261 263 265 265 264 260 257 255 252 254 255 253 252 252 252 253 250 248 248 247 252 250 248 247 246 244 249 256 252 252 249 247 246 245 245 246 244
259 259 257 253 255 256 255 257 256 257 262 261 265 266 263 263 265 263 263 262 261 258 253 251 249 249 249 250 249 251 248 246 250 255 252 247 250 248 245 247 246 245 244 244 245 248 254 248 250 246 245 244 243 243
261 257 258 259 259 259 258 254 260 259 255 257 254 256 256 258 263 264 261 254 253 254 255 251 250 247 250 247 247 247 250 248 244 246 246 245 245 245 245 244 242 242 245 245 244 243 244 243 241 242 243 244 243 241
255 252 256 256 258 258 257 250 251 252 249 253 252 248 251 253 252 258 259 257 255 255 252 249 251 253 249 246 244 244 248 248 246 246 246 245 245 243 242 243 240 241 242 242 241 242 242 242 242 241 241 241 240 240
256 256 254 255 255 255 255 256 255 254 251 252 253 250 248 251 253 257 258 255 257 258 255 252 249 246 247 247 248 246 248 246 246 255 251 251 247 247 242 241 241 242 243 242 241 241 242 243 242 241 241 240 240 239
Wind_Speed
33 32 31 28 30 29 27 28 24 20 22 24 25 24 22 21 21 16 6 15 11 2 4 6 12 9 7 8 5 5 5 3 3 7 4 4 3 5 3 4 6 7 7 4 4 4 10 6 2 6 8 4 5 7
31 29 29 27 27 27 27 23 21 21 22 23 23 24 24 25 25 22 4 5 6 2 1 5 7 15 9 18 12 10 8 7 8 4 3 3 3 1 6 4 1 3 8 8 10 9 4 5 6 5 3 7 6 5
25 26 25 26 27 23 23 23 26 25 25 24 23 24 25 25 26 25 7 9 7 4 1 4 7 10 5 8 3 5 3 5 4 5 5 4 4 5 4 6 4 4 5 4 2 6 12 9 7 4 7 12 11 8
20 22 22 24 24 25 26 24 22 21 23 25 25 26 26 26 26 26 9 8 8 3 1 4 2 5 10 11 10 5 3 2 3 2 2 3 4 4 4 5 6 6 5 5 11 7 8 11 5 12 14 11 12 8
22 23 25 22 16 20 19 15 15 15 15 17 21 25 27 26 25 16 6 9 10 6 3 3 2 7 7 9 15 12 9 5 2 1 1 3 1 2 2 2 2 0 2 3 5 4 3 8 9 14 11 15 17 10
4 5 8 8 6 9 10 11 9 11 14 17 20 22 26 28 26 7 3 7 10 4 2 1 4 3 8 12 10 10 10 3 4 3 3 3 2 2 2 2 5 5 3 5 5 10 9 13 12 12 12 13 15 13
8 7 7 6 4 2 1 6 9 11 15 19 24 22 25 26 13 5 3 7 15 4 2 1 4 3 6 6 4 5 6 4 4 4 4 2 1 4 2 2 6 7 8 10 8 11 4 10 7 11 14 14 12 12
8 9 11 9 10 12 7 2 5 10 6 20 24 24 27 25 12 3 2 24 14 5 2 2 3 2 5 4 5 4 4 4 3 3 3 4 2 1 2 5 7 9 11 5 9 10 9 5 6 11 10 10 11 12
10 13 15 17 17 19 23 23 23 14 22 26 28 29 10 3 3 4 21 13 4 3 4 3 2 3 2 2 3 2 3 2 0 3 3 3 2 2 4 6 7 9 8 11 13 11 6 5 7 9 10 15 11 11
14 15 15 15 17 19 20 21 24 25 23 20 9 4 4 4 30 11 5 3 2 1 0 2 1 3 2 2 3 5 2 3 4 3 4 4 3 6 7 6 8 8 9 9 7 5 9 8 8 10 13 10 10 10
14 12 12 12 12 12 14 10 10 10 12 4 3 5 11 7 3 2 3 3 4 3 3 2 4 3 2 2 4 2 4 3 3 3 3 3 2 2 5 6 7 7 6 8 8 7 8 8 8 10 12 11 12 12
14 12 12 14 15 15 15 17 10 4 3 7 8 5 4 6 5 3 2 2 1 2 1 1 2 1 2 2 4 0 3 2 4 3 4 3 3 5 5 7 9 8 9 11 10 10 10 11 10 12 12 11 13 13
17 16 17 18 17 13 16 12 10 11 6 6 7 7 4 5 10 4 2 2 3 3 4 3 2 2 2 4 3 3 3 4 4 4 3 3 4 6 7 7 8 9 11 12 12 12 14 17 15 16 15 12 13 13
17 16 17 16 16 15 16 12 9 8 6 6 5 7 5 5 4 3 2 1 3 2 3 2 3 3 2 4 3 5 3 4 5 3 2 2 5 6 7 6 8 10 10 12 13 13 15 16 15 15 13 11 13 14
13 13 11 16 12 13 14 15 14 6 6 7 6 6 5 2 2 3 4 1 3 4 2 1 4 3 5 5 4 4 5 4 3 3 2 3 6 7 7 7 7 8 9 10 11 12 13 13 14 15 13 12 12 13
6 7 10 13 12 10 6 7 6 5 6 6 8 5 4 2 5 4 4 2 4 5 1 3 4 5 5 3 6 4 3 2 2 3 4 6 8 8 8 8 9 9 11 11 11 12 12 13 13 13 14 13 13 14
11 3 11 10 8 12 14 7 6 9 6 7 4 3 1 1 3 3 3 5 4 3 3 3 6 4 3 4 4 4 2 2 5 6 6 8 9 8 8 9 10 10 11 11 12 12 11 9 10 12 14 12 12 13
3 3 9 8 5 5 5 7 6 7 8 4 3 5 3 2 5 3 5 5 3 3 3 5 3 6 4 3 2 3 4 6 7 6 6 8 10 9 8 10 9 10 10 10 10 10 9 9 10 8 10 10 10 10
1 2 9 10 6 5 5 6 5 7 4 1 2 3 3 3 6 5 4 5 6 5 5 4 6 4 3 3 7 7 6 6 7 7 8 9 9 9 9 10 11 11 11 10 9 7 7 10 7 6 6 6 6 5
7 4 9 9 5 5 6 4 4 6 4 1 2 4 5 5 5 6 8 6 4 5 7 7 5 4 4 5 5 7 6 7 7 8 7 6 6 9 9 8 7 7 7 7 7 7 6 7 7 6 5 5 6 4
4 4 6 5 5 7 5 3 5 4 4 3 1 1 3 5 11 9 7 7 8 7 6 5 6 8 10 9 8 8 8 7 5 4 5 6 6 7 6 6 6 5 5 4 5 6 7 5 4 4 5 4 3 3
2 6 3 5 6 5 5 5 6 4 4 3 2 3 4 4 4 7 4 8 6 5 5 5 7 7 9 10 9 9 9 11 10 8 9 7 5 5 4 3 5 5 5 4 4 3 3 3 3 3 4 3 4 4
4 4 4 5 8 7 3 1 4 2 5 2 2 4 4 4 3 3 5 5 4 6 5 6 9 11 11 10 11 11 10 10 7 6 6 6 6 4 4 4 3 4 4 3 2 3 3 3 4 4 3 4 3 4
7 6 6 5 6 3 3 5 3 4 4 4 4 3 3 2 2 5 4 3 3 3 5 6 5 6 7 9 8 6 6 6 7 5 4 5 5 4 4 4 4 3 3 3 3 3 3 3 3 3 3 3 3 2
8 8 6 6 4 7 6 5 5 5 4 3 4 3 1 2 4 4 2 1 2 2 3 4 6 6 4 2 2 3 5 3 5 6 3 4 5 4 4 4 4 3 2 3 2 2 2 3 3 4 3 3 3 2
9 6 6 3 3 6 1 4 3 3 4 4 2 2 3 4 5 2 2 3 2 2 2 2 4 4 4 3 3 2 2 3 3 4 3 2 2 4 3 3 2 3 3 3 4 3 1 1 1 2 2 1 0 1
7 6 5 5 2 4 5 4 3 5 4 3 1 3 4 6 2 1 1 1 2 1 2 2 3 4 4 3 3 4 4 5 5 5 3 5 4 3 4 4 3 3 1 3 3 3 3 2 2 2 2 2 4 4
3 5 6 5 6 5 6 4 4 3 1 2 4 6 4 5 3 0 1 1 4 6 6 6 6 5 5 4 3 5 4 3 5 4 3 4 4 3 3 3 2 3 1 2 3 3 3 4 4 3 2 3 3 2
5 3 5 7 7 8 7 4 1 2 4 3 5 2 2 3 1 2 2 3 4 6 6 5 3 3 4 4 4 3 3 3 5 5 3 2 4 4 3 2 3 3 3 2 1 3 4 5 4 4 4 3 3 2
3 2 6 5 7 5 3 1 1 3 3 2 3 5 4 4 3 2 3 3 3 3 3 3 3 3 3 4 1 4 3 1 2 4 3 4 5 3 0 1 2 2 2 2 3 4 6 5 5 4 4 4 3 3
2 4 6 5 6 1 3 2 4 7 5 6 5 5 3 2 3 4 3 2 3 4 4 3 2 1 4 2 3 2 2 3 1 1 2 3 2 1 0 1 1 0 2 3 3 2 2 3 3 2 3 4 4 3
5 4 6 6 2 2 2 3 2 4 4 4 4 2 4 5 3 3 2 2 3 2 1 3 3 2 3 2 1 1 2 3 3 3 4 3 1 1 1 0 1 2 3 4 3 2 2 1 1 2 2 4 4 5
4 4 5 5 4 1 3 5 5 3 5 3 2 1 1 4 4 3 2 2 2 3 4 4 2 3 4 4 4 3 3 3 3 3 3 2 2 2 1 1 1 2 4 3 2 1 1 1 1 2 3 4 5 5
Wind_Direction
271 271 270 271 271 267 264 265 261 247 231 232 233 230 221 214 210 207 193 185 197 186 206 200 190 165 160 168 151 171 123 163 178 195 172 185 180 237 225 190 180 158 166 176 179 212 265 212 148 156 221 263 248 278
270 270 269 267 266 265 264 260 253 239 229 226 221 215 211 204 201 197 200 173 161 164 336 200 215 220 195 197 191 178 182 164 182 153 173 148 191 180 181 228 176 200 181 186 194 209 234 238 241 252 239 237 277 281
263 264 264 264 266 266 264 254 251 237 227 225 219 213 209 205 204 193 183 159 180 154 175 180 216 235 211 198 194 168 261 175 196 179 161 192 195 133 171 233 201 231 180 222 130 237 254 264 277 283 245 243 254 282
271 270 270 267 265 261 262 261 249 232 223 220 215 210 208 205 201 195 188 159 168 129 174 221 211 200 208 208 201 180 198 61 85 143 175 175 164 175 196 212 184 202 158 200 259 284 309 289 14 347 325 312 265 263
271 266 271 270 255 248 251 248 242 228 220 214 211 206 198 196 195 192 170 170 172 167 167 225 185 216 202 188 203 198 203 210 103 209 178 241 196 128 182 86 226 185 323 189 238 71 331 280 341 347 335 13 353 300
358 311 283 285 279 280 269 248 226 219 213 209 202 198 189 183 174 168 108 187 184 131 101 274 256 211 185 187 195 205 206 176 179 179 221 256 241 136 127 218 60 40 39 354 307 339 291 276 270 1 332 9 6 355
6 13 37 30 21 45 197 224 227 235 232 212 190 180 170 167 157 162 185 145 164 139 104 298 287 234 170 143 171 196 169 170 224 189 207 172 297 149 153 202 33 1 336 333 351 341 339 24 331 351 353 22 14 6
24 40 48 30 68 63 46 59 151 91 93 152 153 152 147 136 115 136 338 145 137 95 104 218 245 200 167 157 154 165 155 177 179 196 139 183 96 69 222 15 0 347 329 319 346 336 304 336 11 22 11 36 36 20
60 62 50 59 73 59 58 90 81 82 98 124 127 117 108 80 120 81 115 94 60 119 173 200 221 186 101 134 110 84 94 130 286 181 178 110 83 80 23 352 344 341 325 321 324 303 348 7 22 31 38 43 48 36
75 66 65 67 54 48 34 44 88 83 87 77 65 86 106 98 113 99 48 67 39 327 92 221 122 237 153 182 141 129 162 144 178 195 103 72 77 95 36 4 339 329 329 349 345 350 353 4 31 33 54 50 61 65
68 62 66 65 44 32 56 80 43 38 38 56 52 58 101 54 89 104 127 151 156 199 181 250 204 165 132 162 135 116 162 144 167 114 95 103 111 43 26 14 357 349 12 26 41 44 45 42 44 53 54 55 65 66
60 51 49 45 42 40 41 53 83 63 40 86 100 78 41 34 36 81 85 110 163 143 104 268 72 76 69 300 92 229 103 99 100 60 69 66 59 24 23 29 18 15 39 51 48 54 57 68 65 73 68 63 66 72
56 52 49 46 44 44 53 51 43 116 71 35 47 53 30 339 41 58 131 49 54 12 351 340 62 49 29 35 70 89 97 72 104 57 72 39 44 34 41 45 44 48 58 63 62 64 65 66 60 63 65 56 64 66
52 51 50 48 46 41 40 49 65 85 69 62 61 55 84 360 21 19 330 299 323 329 342 338 78 48 2 55 9 81 30 53 68 72 106 72 73 73 63 68 69 60 62 64 63 65 68 66 63 61 62 66 70 66
66 52 47 26 33 33 40 48 44 56 63 59 44 50 52 330 342 308 298 324 337 305 318 114 58 57 24 65 22 80 46 62 65 143 93 77 68 72 69 66 69 69 67 64 59 60 62 64 68 66 58 61 64 68
59 65 37 37 38 29 42 53 33 62 59 63 42 19 334 20 342 348 348 330 336 331 282 19 80 62 48 49 49 20 81 108 194 91 105 97 84 73 69 62 58 59 63 67 66 65 66 63 67 71 67 59 57 59
48 43 353 4 20 21 36 68 46 50 59 44 28 359 350 266 276 308 314 322 303 320 55 37 57 48 66 55 56 24 119 158 99 89 84 83 85 79 72 66 60 60 57 57 59 56 64 69 75 73 70 61 65 65
52 341 356 14 34 27 39 43 74 64 67 22 49 337 334 319 324 325 328 332 356 61 43 59 66 49 48 88 99 93 95 89 78 84 83 78 73 64 64 70 64 64 63 57 56 57 54 58 66 67 70 68 66 60
92 11 8 19 66 83 64 38 62 86 59 110 352 351 344 331 5 356 354 21 39 51 95 59 56 44 69 73 114 110 106 99 102 86 73 67 72 76 74 68 64 61 61 61 62 58 59 53 54 56 59 62 67 48
87 42 356 42 41 77 70 48 70 83 64 96 1 29 44 23 352 12 27 31 51 58 48 48 32 39 69 75 80 92 96 103 107 96 74 60 56 64 57 64 62 70 69 69 57 52 65 61 43 45 52 62 79 61
1 341 27 50 50 66 87 92 63 100 137 88 237 10 49 29 30 22 25 1 44 38 60 50 64 62 62 61 63 70 66 70 71 78 103 90 64 68 67 61 65 62 68 57 64 47 51 56 49 59 71 58 52 55
316 9 62 21 73 59 72 19 106 143 87 130 104 50 41 16 357 16 17 28 52 21 28 56 60 70 65 59 63 66 82 83 76 73 69 81 81 67 54 36 75 66 58 46 61 73 40 43 41 57 74 38 51 48
12 36 43 37 69 67 113 356 82 81 90 84 50 49 33 26 358 6 65 36 58 27 43 57 65 71 78 72 70 63 69 88 81 79 82 83 77 56 65 56 57 84 75 45 47 62 56 26 57 67 61 51 54 43
31 49 48 64 73 112 40 26 42 64 60 57 64 66 38 34 19 57 60 37 35 25 46 54 76 85 65 55 55 57 65 88 92 67 62 97 89 66 62 65 54 45 51 77 59 58 48 35 21 67 45 78 45 85
69 352 61 32 15 73 62 34 19 55 73 54 77 39 355 49 72 70 100 338 19 4 14 56 70 70 94 77 40 51 29 67 101 96 25 76 99 85 72 61 47 41 69 82 46 62 26 25 38 58 51 66 84 43
74 2 53 50 4 83 85 84 73 113 95 65 69 34 47 78 71 95 149 203 170 178 191 143 121 94 64 55 95 58 36 46 87 85 45 37 104 131 145 114 48 342 23 102 120 108 63 32 42 49 16 1 162 139
67 26 47 33 22 78 68 40 46 77 72 96 106 58 70 69 103 218 128 22 122 216 103 124 91 97 111 93 66 44 45 53 77 97 84 62 54 65 134 143 161 243 123 118 124 136 159 181 199 241 278 296 239 213
103 42 80 332 60 32 95 63 52 59 43 16 70 47 104 150 159 109 84 42 105 87 73 54 48 62 79 78 78 95 64 61 87 76 61 51 51 48 51 49 32 59 79 161 158 150 160 172 190 210 223 251 270 238
40 341 71 39 46 41 37 56 37 12 358 78 104 109 107 60 336 84 55 85 88 97 90 86 32 32 59 54 41 29 61 92 81 58 51 293 335 305 11 28 16 16 11 359 279 195 209 183 195 194 216 224 265 313
10 39 84 63 60 42 315 109 318 296 350 82 91 101 65 38 33 32 65 71 89 111 137 126 123 100 134 109 83 17 4 34 176 152 188 229 224 240 330 30 358 343 1 48 19 337 4 27 19 25 22 9 16 4
69 67 75 60 76 298 200 286 65 73 36 43 32 80 83 87 38 27 46 56 110 110 104 85 44 59 118 124 122 104 330 311 34 110 135 124 124 126 5 323 300 340 70 74 54 51 34 30 26 10 7 356 341 350
34 69 115 102 156 260 79 66 78 75 356 49 352 38 17 49 43 317 336 76 69 84 235 140 126 243 205 220 239 246 191 138 157 160 139 118 123 220 223 288 50 86 86 76 67 76 68 72 335 335 313 311 308 313
53 54 62 86 57 39 288 86 31 60 31 44 2 114 134 136 162 253 325 48 177 177 172 194 194 139 144 150 148 158 152 147 153 137 144 150 168 180 164 140 108 104 103 99 91 86 52 7 296 284 287 292 297 295